"Pseudo-MPEC" for P22orYG

Created 2026 Jul 23 9:35:10 UT using Find_Orb

Click here for an explanation of pseudo-MPECs

 
 Astrometry: 
     P22orYG*0C2026 07 19.46429421 50 50.130-20 44 54.16   ~7JCZ 21.55wXNEOCPF52
     P22orYG 0C2026 07 19.47525321 50 56.166-20 45 30.54   ~7JCZ 21.45wXNEOCPF52
     P22orYG 0C2026 07 19.48634421 51 02.268-20 46 07.10   ~7JCZ 21.02wXNEOCPF52
     P22orYG 0C2026 07 19.49732921 51 08.253-20 46 42.87   ~7JCZ 21.01wXNEOCPF52
     P22orYG 0C2026 07 19.54570421 51 34.581-20 49 17.76   ~7JGo 21.32GVNEOCPF51
     P22orYG 0C2026 07 19.54635421 51 34.965-20 49 19.74   ~7JGo 21.83GVNEOCPF51
     P22orYG KC2026 07 19.68582121 52 56.477-20 54 27.61   ~7JH5 20.6 GWNEOCP474
     P22orYG KC2026 07 19.69347221 53 00.689-20 54 50.44   ~7JH5 21.2 GWNEOCP474
     P22orYG KC2026 07 19.70112621 53 05.035-20 55 14.84   ~7JH5 21.2 GWNEOCP474
     P22orYG 0B2026 07 20.10547521 57 03.254-21 16 57.76   ~7K75 21.2 GWNEOCPM21
     P22orYG 0B2026 07 20.14116621 57 22.439-21 18 42.60   ~7K75       WNEOCPM21
     P22orYG  C2026 07 23.35900722 26 35.246-23 42 23.46   ~7N9K 20.8 GWNEOCPH01
     P22orYG  C2026 07 23.36395622 26 37.513-23 42 34.88   ~7N9K 21.0 GWNEOCPH01
     P22orYG  C2026 07 23.37596122 26 43.005-23 43 02.52   ~7N9K 21.2 GWNEOCPH01
     P22orYG  C2026 07 23.38200922 26 45.770-23 43 16.34   ~7N9K 20.8 GWNEOCPH01

Station data:
(474) Mount John Observatory, Lake Tekapo  (S43.987385 E170.464960)  New
   Zealand.  Observers A. C. Gilmore, P. M. Kilmartin. Measurer P. M.
   Kilmartin. 1.0-m f/7.7 reflector + CCD.
(F51) Pan-STARRS 1, Haleakala  (N20.707234 W156.255910)  US/Hawaii.
   Observers J. Herman, T. Lowe, P. Minguez, A. Schultz, I. Smith. Measurers
   K. Chambers, T. de Boer, J. Fairlamb, H. Gao, M. Huber, C.-C. Lin, E.
   Magnier, Y. Ramanjooloo, R. Wainscoat, R. Weryk. 1.8-m Ritchey-Chrétien +
   CCD.
(F52) Pan-STARRS 2, Haleakala  (N20.707382 W156.255910)  US/Hawaii.
   Observers J. Herman, T. Lowe, P. Minguez, A. Schultz, I. Smith. Measurers
   K. Chambers, T. de Boer, J. Fairlamb, H. Gao, M. Huber, C.-C. Lin, E.
   Magnier, Y. Ramanjooloo, R. Wainscoat, R. Weryk. 1.8-m Ritchey-Chrétien +
   CCD.
(H01) Magdalena Ridge Observatory, Socorro  (N33.984833 W107.189333)  US/New
   Mexico.  Observers W. H. Ryan, E. V. Ryan. Measurer W. H. Ryan. 2.4-m
   f/8.9 reflector + CCD.
(M21) Schiaparelli Southern Observatory, Hakos  (S23.236549 E16.361440)
   Namibia.  Observers A. Aletti, F. Bellini, L. Buzzi, G. Galli. Measurer L.
   Buzzi. 0.36-m f/8.4 reflector + CCD.

Orbital elements:  P22orYG
   Perihelion 2026 Jul 14.028482 +/- 0.0143 TT =  0:41:00.8 (JD 2461235.528482)
Epoch 2026 Jul 23.0 TT = JDT 2461244.5   Earth MOID: 0.0603      AutoNEOCP
M   3.634085237 +/- 0.014           (J2000 ecliptic)
n   0.405069138 +/- 0.00124         Peri.  178.539902 +/- 0.015
a   1.809047395 +/- 0.00369         Node   113.875923 +/- 0.0026
e   0.40483697 +/- 0.00113          Incl.    6.270353 +/- 0.013
P   2.433/888.720d         H 25.68  G  0.15   U  8.2
q 1.076678121 +/- 0.00016    Q 2.541416669 +/- 0.00721
From 15 observations 2026 July 19-23; mean residual 0".29
Residuals in arcseconds: 
260719 F52  .63-  .25+    260719 F51  .41+  .01-    260720 M21  .29-  .29-    
260719 F52  .21-  .03+    260719 474  .09-  .16+    260723 H01  .02+  .03-    
260719 F52  .32+  .16-    260719 474  .83-  .83+    260723 H01  .01+  .01+    
260719 F52  .18+  .13-    260719 474  .19+  .14-    260723 H01  .02-  .01+    
260719 F51  .01-  .08-    260720 M21  .16+  .14+    260723 H01  .01-  .02+    

Ephemerides (geocentric):
Date (UTC) HH   RA             Dec           delta  r     elong  mag " sig PA
---- --------  ------------   ------------  ------ ------ -----  --- --------
2026 07 23 10  22 27 02.426   -23 42 57.43  .07616 1.0812 148.0 21.6 .236 162
2026 07 23 11  22 27 23.218   -23 44 31.11  .07624 1.0813 148.0 21.6 .250 157
2026 07 23 12  22 27 43.964   -23 46 04.40  .07633 1.0813 147.9 21.6 .267 154
2026 07 23 13  22 28 04.664   -23 47 37.31  .07641 1.0813 147.9 21.6 .284 150
2026 07 23 14  22 28 25.319   -23 49 09.84  .07650 1.0814 147.8 21.6 .303 147
2026 07 23 15  22 28 45.928   -23 50 42.00  .07658 1.0814 147.8 21.6 .323 144
2026 07 23 16  22 29 06.491   -23 52 13.77  .07667 1.0815 147.7 21.6 .343 142
2026 07 23 17  22 29 27.008   -23 53 45.17  .07675 1.0815 147.7 21.6 .365 140
2026 07 23 18  22 29 47.479   -23 55 16.20  .07684 1.0815 147.7 21.6 .387 138
2026 07 23 19  22 30 07.904   -23 56 46.85  .07692 1.0816 147.6 21.6 .410 136
2026 07 23 20  22 30 28.284   -23 58 17.13  .07701 1.0816 147.6 21.6 .434 134
2026 07 23 21  22 30 48.617   -23 59 47.03  .07709 1.0817 147.5 21.6 .458 133
2026 07 23 22  22 31 08.905   -24 01 16.57  .07718 1.0817 147.5 21.6 .483 131
2026 07 23 23  22 31 29.147   -24 02 45.74  .07726 1.0818 147.5 21.6 .509 130
2026 07 24 00  22 31 49.343   -24 04 14.54  .07735 1.0818 147.4 21.6 .535 129
2026 07 24 01  22 32 09.493   -24 05 42.97  .07744 1.0818 147.4 21.6 .562 128
2026 07 24 02  22 32 29.597   -24 07 11.03  .07752 1.0819 147.3 21.6 .589 127
2026 07 24 03  22 32 49.656   -24 08 38.74  .07761 1.0819 147.3 21.6 .616 126
2026 07 24 04  22 33 09.668   -24 10 06.07  .07770 1.0820 147.2 21.6 .644 125
2026 07 24 05  22 33 29.635   -24 11 33.05  .07779 1.0820 147.2 21.6 .672 124
2026 07 24 06  22 33 49.556   -24 12 59.66  .07787 1.0821 147.2 21.6 .701 124
2026 07 24 07  22 34 09.431   -24 14 25.92  .07796 1.0821 147.1 21.6 .730 123
2026 07 24 08  22 34 29.261   -24 15 51.81  .07805 1.0821 147.1 21.6 .760 122
2026 07 24 09  22 34 49.044   -24 17 17.35  .07814 1.0822 147.0 21.6 .790 122
2026 07 24 10  22 35 08.782   -24 18 42.53  .07822 1.0822 147.0 21.6 .820 121
2026 07 24 11  22 35 28.474   -24 20 07.36  .07831 1.0823 147.0 21.6 .851 121
2026 07 24 12  22 35 48.120   -24 21 31.83  .07840 1.0823 146.9 21.6 .882 120
2026 07 24 13  22 36 07.720   -24 22 55.95  .07849 1.0824 146.9 21.6 .913 120
2026 07 24 14  22 36 27.275   -24 24 19.72  .07858 1.0824 146.8 21.7 .945 119
2026 07 24 15  22 36 46.784   -24 25 43.14  .07867 1.0825 146.8 21.7 .977 119
2026 07 24 16  22 37 06.247   -24 27 06.21  .07876 1.0825 146.8 21.7 1.01 118
2026 07 24 17  22 37 25.665   -24 28 28.93  .07885 1.0825 146.7 21.7 1.04 118
2026 07 24 18  22 37 45.037   -24 29 51.30  .07894 1.0826 146.7 21.7 1.08 118
2026 07 24 19  22 38 04.363   -24 31 13.32  .07903 1.0826 146.7 21.7 1.11 117
2026 07 24 20  22 38 23.644   -24 32 35.01  .07912 1.0827 146.6 21.7 1.14 117
2026 07 24 21  22 38 42.879   -24 33 56.35  .07921 1.0827 146.6 21.7 1.18 117
2026 07 24 22  22 39 02.068   -24 35 17.34  .07930 1.0828 146.5 21.7 1.21 116
2026 07 24 23  22 39 21.212   -24 36 38.00  .07939 1.0828 146.5 21.7 1.25 116
2026 07 25 00  22 39 40.310   -24 37 58.31  .07948 1.0829 146.5 21.7 1.28 116
2026 07 25 01  22 39 59.363   -24 39 18.29  .07957 1.0829 146.4 21.7 1.32 116
2026 07 25 02  22 40 18.370   -24 40 37.93  .07966 1.0830 146.4 21.7 1.35 115
2026 07 25 03  22 40 37.332   -24 41 57.23  .07975 1.0830 146.4 21.7 1.39 115
2026 07 25 04  22 40 56.248   -24 43 16.20  .07984 1.0831 146.3 21.7 1.42 115
2026 07 25 05  22 41 15.119   -24 44 34.83  .07993 1.0831 146.3 21.7 1.46 115
2026 07 25 06  22 41 33.945   -24 45 53.13  .08003 1.0831 146.2 21.7 1.50 114
2026 07 25 07  22 41 52.725   -24 47 11.10  .08012 1.0832 146.2 21.7 1.53 114
2026 07 25 08  22 42 11.460   -24 48 28.74  .08021 1.0832 146.2 21.7 1.57 114
2026 07 25 09  22 42 30.149   -24 49 46.05  .08030 1.0833 146.1 21.7 1.61 114